GFSMW_sfc_dewp_243.txt.gz
Dewpoint
44 49 52 55 57 61 61 62 61 60 61 59 61 61 60 60 61 61 62 63 64 65 64 63 63 62 62 62 61 61 59 59 59 58 58 59 59 59 60 61 61 61 61
14 26 49 52 55 59 61 62 62 62 61 59 59 60 60 61 61 61 61 62 63 64 64 63 63 63 62 62 61 61 59 60 60 57 56 56 57 57 59 59 59 60 60
16 13 25 50 52 56 60 62 62 63 62 60 59 61 63 63 62 61 60 62 62 63 64 63 63 63 63 62 61 61 60 59 59 60 57 54 54 54 55 56 58 59 59
17 13 14 23 50 53 58 61 62 63 63 62 60 60 62 61 61 61 62 61 62 62 63 63 63 62 63 61 62 61 61 60 59 58 60 58 55 52 50 55 58 58 57
22 22 18 16 24 49 54 59 61 62 63 63 61 60 60 61 61 62 63 62 62 62 63 63 63 62 62 62 61 61 60 60 60 59 58 59 58 56 54 54 55 56 58
25 24 24 25 23 32 51 56 59 61 62 63 63 61 59 59 60 63 63 63 63 63 63 63 63 62 62 61 61 61 60 60 60 59 59 58 57 57 56 56 56 56 57
31 32 30 34 32 27 46 54 57 60 61 63 63 63 61 60 59 61 63 63 63 64 63 63 64 63 63 62 62 61 61 60 60 59 59 59 58 58 57 57 56 55 56
30 31 34 35 38 39 45 53 57 59 61 63 63 63 63 61 61 61 62 63 63 64 64 64 64 64 64 63 63 62 62 61 60 59 60 59 59 59 58 57 56 54 54
30 30 32 38 39 42 44 53 56 59 60 62 63 63 64 63 63 63 63 63 63 63 64 65 64 64 64 64 63 63 62 62 61 61 60 60 60 60 60 60 59 57 55
31 32 33 35 35 37 40 47 51 57 59 61 63 64 64 64 64 63 63 63 63 64 64 64 64 64 65 65 64 64 63 63 62 62 61 61 60 61 61 61 60 60 58
32 33 34 34 35 35 35 39 44 52 53 58 61 62 63 63 63 63 64 63 63 63 63 64 64 64 64 64 64 64 64 63 63 63 62 61 61 61 61 61 61 60 60
34 34 34 34 34 34 35 36 38 44 46 56 56 59 61 62 64 64 64 65 65 65 64 64 64 64 64 64 64 64 64 64 64 63 63 63 62 62 62 62 61 61 61
32 32 32 33 34 34 35 35 37 38 42 47 50 56 58 58 57 57 59 60 62 65 65 65 65 65 65 65 64 64 64 64 64 64 64 64 63 63 63 63 63 63 62
31 32 32 32 32 33 34 35 36 38 40 42 45 48 51 54 56 58 59 59 60 61 62 63 65 65 65 65 65 65 65 65 65 65 65 65 64 64 64 64 63 63 63
29 30 31 32 32 33 33 34 36 37 38 39 41 43 45 48 50 52 54 57 59 60 61 62 62 63 64 64 64 65 65 65 65 65 65 65 63 57 61 64 64 64 63
30 31 31 30 31 31 32 33 34 36 38 38 40 42 43 45 46 49 52 54 53 55 59 60 61 61 62 54 48 51 63 65 65 65 65 65 57 56 50 51 53 60 63
31 30 30 30 31 32 33 34 34 35 36 37 39 40 40 41 42 42 44 49 50 54 53 55 57 58 59 52 48 45 56 60 64 65 65 65 64 57 63 51 47 49 50
31 31 30 31 32 32 34 33 32 32 34 34 37 38 39 39 40 42 43 43 45 50 52 53 54 55 56 48 45 43 54 57 59 62 64 65 64 63 61 62 60 58 59
34 34 33 33 31 32 33 31 32 31 31 33 34 36 37 37 38 39 41 42 45 46 49 51 52 53 52 45 44 46 54 54 55 57 58 61 63 56 49 60 58 50 43
34 34 35 33 31 31 31 31 31 31 31 33 35 35 35 35 36 38 38 41 44 44 47 50 51 49 52 47 46 46 48 48 47 47 49 45 49 49 46 56 58 44 43
34 34 32 32 31 31 32 31 31 31 33 34 34 35 35 35 36 36 38 40 41 42 45 48 49 50 50 51 45 42 48 47 43 41 43 42 42 42 42 44 58 46 41
32 31 30 30 31 32 31 30 30 31 32 32 32 32 33 34 34 36 37 38 40 41 42 44 46 47 49 44 43 41 40 42 41 41 42 39 40 41 40 40 39 39 38
31 31 31 31 31 31 31 30 31 31 31 31 31 32 32 32 32 34 35 37 38 39 39 42 43 43 43 42 39 40 38 37 38 38 38 38 38 38 37 38 37 37 39
32 32 31 30 30 30 30 30 30 30 30 30 30 31 32 32 33 33 35 36 37 39 40 41 41 42 41 42 38 37 37 34 35 35 35 35 35 35 35 34 36 38 41
32 32 31 30 29 30 30 29 29 30 29 29 30 30 30 31 32 33 34 35 36 38 39 40 41 41 41 41 39 39 36 38 36 33 33 33 33 33 33 34 35 36 37
31 30 30 30 30 29 29 29 29 29 29 30 30 31 31 32 31 31 32 33 34 34 37 38 39 43 41 39 39 40 38 37 33 33 33 33 34 34 34 34 34 35 36

GFSMW_sfc_dewp_246.txt.gz
Dewpoint
18 17 44 54 57 60 60 60 59 60 63 62 62 62 62 62 63 63 63 63 64 64 63 62 62 62 62 62 62 61 60 59 59 58 57 58 59 59 60 61 61 61 62
17 17 18 45 55 59 60 60 60 59 61 60 60 60 60 60 61 62 62 62 63 64 64 62 62 62 62 62 62 61 59 60 59 58 56 56 57 58 59 60 60 61 62
20 21 20 19 48 56 60 60 61 60 60 59 59 59 59 60 59 60 60 61 62 62 64 63 62 62 62 61 62 61 60 59 59 59 58 55 54 55 56 56 59 60 60
25 24 22 22 22 51 57 60 61 61 60 59 57 57 57 56 57 57 58 59 61 61 62 62 63 62 62 62 62 62 61 61 59 59 60 59 56 54 54 55 57 58 58
31 32 33 28 29 24 44 57 61 61 61 61 58 57 56 57 56 58 58 60 61 61 61 62 62 62 62 62 61 62 62 61 61 60 58 60 59 56 56 56 57 57 58
30 32 36 38 39 42 40 29 57 61 62 62 60 58 57 57 57 58 59 60 60 61 62 62 62 62 62 62 62 62 61 61 61 61 60 59 58 58 57 57 57 57 58
32 33 33 33 34 37 41 47 43 59 61 62 62 60 59 58 58 58 60 60 61 61 61 62 62 62 62 62 62 62 61 61 61 60 60 60 59 59 58 58 56 56 57
33 33 34 33 33 34 37 42 51 55 60 62 63 62 60 60 58 59 61 61 62 62 63 62 62 62 62 62 62 62 61 61 61 60 60 60 60 60 59 58 57 56 55
33 33 33 33 33 34 35 37 41 47 58 61 63 63 63 62 61 60 61 63 63 63 64 64 63 63 63 63 63 62 62 62 61 61 61 60 60 60 60 60 59 58 56
33 33 33 33 33 34 35 37 38 40 46 55 62 63 64 63 63 63 63 63 63 64 64 64 64 64 64 64 64 63 63 62 62 62 61 61 61 61 61 60 60 60 58
34 34 33 32 33 34 34 36 37 38 41 46 56 62 63 64 64 64 63 64 64 64 64 64 64 64 64 64 64 64 63 63 63 62 62 61 61 61 61 61 61 60 60
31 33 33 32 32 33 34 33 34 36 39 41 44 46 54 61 64 64 64 65 65 65 65 64 64 64 64 64 64 64 64 63 63 63 62 62 62 61 62 62 61 61 61
29 30 29 30 30 30 33 33 34 33 35 38 42 44 44 47 52 58 61 62 63 65 64 65 63 64 65 64 64 64 64 64 64 64 63 63 63 63 62 62 62 61 61
30 30 29 28 28 29 31 32 33 34 34 34 38 40 43 45 45 47 51 56 60 61 62 64 62 63 65 65 64 64 64 64 64 64 64 64 64 63 63 63 62 62 62
29 29 28 27 28 29 31 33 33 33 34 33 34 38 40 40 41 43 44 47 48 53 59 60 61 62 63 63 64 64 64 64 64 64 64 64 62 57 59 64 64 63 62
29 29 28 28 29 30 31 33 32 33 33 33 34 37 38 38 39 40 41 43 44 45 53 53 58 59 60 51 48 51 60 61 64 64 64 64 56 55 49 49 51 59 63
30 30 29 30 31 31 32 33 32 33 33 33 33 35 36 37 37 37 38 40 42 44 47 50 52 54 56 49 46 44 57 59 60 61 62 63 63 56 63 51 47 47 46
32 31 31 32 32 32 32 31 32 32 33 33 33 34 36 36 35 35 36 38 39 41 45 46 49 51 53 46 45 43 55 56 57 57 58 59 60 60 60 61 61 58 59
34 34 34 33 32 30 31 31 31 31 32 33 34 34 35 35 35 35 36 36 38 39 41 42 44 47 50 44 43 46 54 54 53 53 54 54 55 50 46 54 56 53 48
34 35 34 33 31 31 31 31 31 31 31 32 33 33 34 34 34 35 35 37 37 38 39 39 41 42 48 45 44 46 50 49 46 45 46 43 45 43 41 46 49 50 43
34 34 32 31 31 32 32 31 31 30 31 32 33 33 33 33 33 34 35 35 36 37 38 38 40 42 43 47 45 44 48 47 42 40 40 40 40 40 40 41 43 46 37
33 32 31 31 32 32 31 30 29 30 31 31 31 31 32 32 31 33 34 35 35 36 36 37 38 39 41 40 42 42 41 43 44 42 40 38 39 40 40 38 39 38 36
32 32 32 32 31 31 31 30 30 30 29 29 29 29 29 29 30 31 32 34 34 35 35 36 36 37 39 41 40 40 39 38 38 38 38 37 37 38 36 37 37 35 37
32 32 31 31 30 30 30 30 30 30 29 28 28 28 29 29 30 30 31 33 33 34 35 35 36 38 39 40 41 40 41 37 36 36 36 35 33 34 35 34 35 36 38
29 30 29 29 29 29 29 28 28 28 28 29 29 29 30 30 30 30 31 30 31 33 34 34 35 36 37 39 39 39 40 39 37 34 33 34 34 35 35 35 35 35 36
28 28 28 29 29 29 28 27 28 28 29 29 29 29 30 30 31 31 31 32 32 32 33 34 34 34 34 36 38 39 38 38 35 35 35 35 35 36 35 35 34 35 35

GFSMW_sfc_dewp_249.txt.gz
Dewpoint
25 27 31 33 46 60 60 60 61 64 63 63 63 63 62 63 64 64 65 65 65 65 64 62 63 63 61 61 62 62 62 61 62 61 60 61 62 63 61 61 61 61 62
33 35 38 38 38 40 61 61 61 62 64 62 62 62 63 64 64 64 64 65 65 65 64 64 62 62 61 62 63 63 61 61 62 59 59 56 56 61 62 62 62 63 62
34 36 39 42 44 44 46 61 62 62 63 63 62 62 61 62 62 63 64 64 64 65 66 65 64 64 63 62 64 64 63 59 62 63 59 58 54 58 60 61 61 63 62
34 35 36 38 39 43 48 49 59 63 62 63 61 61 58 57 58 60 61 62 64 64 65 66 65 64 64 63 63 63 64 63 61 62 62 64 61 55 52 59 60 61 61
35 34 35 35 36 40 44 50 53 54 64 63 62 61 60 57 57 59 60 62 63 64 64 65 65 64 64 64 64 64 64 63 62 61 61 62 62 62 59 57 57 62 61
35 35 35 36 37 39 42 45 48 55 57 64 63 62 61 60 58 58 59 59 60 62 63 63 64 64 64 64 64 65 65 64 64 62 62 60 59 59 60 59 60 59 61
36 35 34 35 38 40 41 42 43 46 53 64 64 63 62 62 61 60 60 60 59 60 62 63 63 63 64 64 64 64 64 64 64 64 62 63 62 61 60 60 59 59 60
37 36 36 35 35 38 40 41 42 43 47 56 65 64 63 61 61 61 61 61 61 62 64 64 64 64 64 65 65 64 64 65 65 65 65 63 63 63 63 61 60 60 61
37 38 36 36 35 36 37 39 38 39 43 46 49 60 65 64 62 63 63 62 64 63 64 64 64 64 64 65 65 64 64 64 66 65 66 64 64 64 63 63 62 61 59
31 33 32 33 34 33 33 36 36 36 38 43 44 46 52 61 65 64 64 64 64 66 65 66 65 65 65 65 65 65 64 65 65 64 64 64 64 64 64 64 62 62 61
30 28 27 28 31 31 32 34 35 35 36 39 44 44 46 49 52 56 63 65 65 66 66 66 66 65 65 65 65 65 64 64 65 65 65 65 65 64 64 65 63 63 62
30 28 27 28 29 30 31 33 34 34 35 35 38 43 43 46 49 50 51 55 61 65 65 65 65 65 65 65 65 65 65 65 65 65 65 64 64 65 65 65 64 64 63
30 28 27 27 28 31 32 34 33 34 35 34 35 38 40 42 43 45 48 49 49 52 62 63 64 65 65 64 65 65 65 65 65 65 65 65 65 65 65 65 64 64 63
30 28 29 30 31 32 32 34 34 33 35 35 34 36 37 39 40 41 43 45 46 46 48 57 64 63 62 63 63 64 64 64 64 65 66 65 65 65 65 65 64 64 63
28 29 30 30 31 32 32 33 34 34 34 34 37 36 37 37 38 39 40 42 44 44 45 47 51 59 63 62 62 60 61 62 61 65 65 65 63 57 61 65 65 64 63
29 30 31 31 32 31 31 30 31 33 34 34 35 38 37 37 37 38 38 40 41 42 43 45 47 50 54 48 47 54 63 64 64 64 64 65 57 57 50 49 50 59 63
31 31 31 32 33 31 31 31 32 33 33 33 33 35 37 37 37 37 37 38 39 40 42 43 45 47 48 45 44 43 58 61 61 61 62 62 64 58 65 53 46 46 46
32 32 32 34 32 32 32 33 32 32 33 32 32 33 34 35 36 36 36 37 37 38 39 40 42 43 43 41 43 41 55 58 59 59 59 59 59 59 58 60 61 61 62
34 34 35 33 32 32 32 32 31 31 30 30 32 32 33 33 33 34 36 37 37 36 37 38 39 41 43 39 41 44 53 55 55 56 56 56 56 50 47 53 51 49 49
33 35 34 33 32 32 32 31 30 30 29 31 32 32 33 33 32 33 35 36 36 35 37 37 39 38 40 39 39 43 51 52 52 52 51 43 48 44 42 49 48 47 42
34 34 33 33 33 33 32 30 29 28 30 32 32 32 31 32 32 32 34 34 35 35 37 37 39 39 39 41 39 41 46 49 47 44 45 44 41 40 40 40 45 45 37
32 32 32 32 33 33 31 29 26 28 29 30 30 30 31 30 29 32 33 33 33 34 35 35 37 40 41 38 39 39 40 44 48 46 46 39 40 39 39 39 39 37 36
30 30 30 30 31 31 30 27 27 28 28 28 30 30 30 30 30 30 31 31 31 32 33 33 33 36 40 42 39 38 38 37 40 44 41 38 38 37 36 37 37 35 40
28 27 28 28 29 30 29 28 27 27 27 28 29 29 29 29 29 30 32 32 32 32 32 32 31 33 34 37 41 43 45 40 40 39 41 39 37 35 37 37 38 39 41
26 26 27 28 28 29 29 28 27 26 27 28 28 29 29 30 29 30 31 31 32 33 32 33 33 33 33 33 35 36 37 39 39 38 37 38 40 42 43 45 43 40 39
26 25 27 27 28 29 29 28 28 28 28 28 28 29 29 30 30 30 30 32 32 32 32 32 33 34 33 33 34 34 34 34 35 37 40 39 40 41 43 44 43 41 38

GFSMW_sfc_dewp_255.txt.gz
Dewpoint
36 38 41 42 42 47 49 50 53 57 57 60 62 63 61 61 61 62 64 64 64 65 66 64 64 64 61 61 63 62 61 58 59 57 56 56 58 59 56 56 55 56 57
36 37 38 40 42 43 46 48 50 53 55 55 60 62 62 61 60 61 64 64 66 66 65 66 64 64 61 64 64 64 60 59 59 57 56 54 55 56 59 60 60 62 59
36 37 37 38 39 41 43 43 46 49 53 55 57 60 63 63 62 60 60 62 65 66 67 66 66 64 64 62 65 65 64 59 60 62 56 51 50 52 55 62 62 64 62
37 37 37 37 38 40 43 41 41 42 46 51 52 53 53 59 60 61 60 61 64 65 66 67 67 67 64 63 64 64 64 64 59 60 59 61 60 56 52 56 62 64 64
38 37 37 36 37 39 41 43 43 42 41 44 46 49 49 52 58 63 64 65 64 65 65 66 68 67 66 66 65 64 65 63 62 59 59 62 62 63 60 57 55 59 61
34 33 35 36 36 39 41 39 39 41 43 42 45 45 47 48 50 51 59 63 63 63 65 65 67 68 67 67 66 66 65 65 64 62 61 58 60 59 59 58 59 59 59
31 30 31 31 34 37 41 41 39 36 39 41 43 44 45 46 47 49 49 51 56 63 63 65 66 66 68 68 68 67 67 65 65 64 62 61 59 59 57 56 57 57 59
30 30 30 31 32 34 37 40 39 39 38 38 41 43 43 43 45 46 47 46 48 50 52 57 65 66 66 67 68 67 66 66 66 66 64 61 61 59 59 56 56 56 58
29 30 29 31 32 33 35 38 37 35 38 39 38 40 43 42 45 45 45 46 44 46 48 50 53 63 65 66 66 66 66 66 66 66 66 64 62 61 60 60 59 59 59
30 29 29 31 32 33 33 37 37 35 36 39 40 39 41 41 43 44 43 44 45 44 46 49 50 53 60 65 64 65 65 66 65 64 65 65 64 63 62 62 63 63 62
30 29 29 30 31 33 33 34 34 34 36 36 38 41 41 40 41 42 43 44 44 45 44 45 46 50 52 54 63 64 64 64 65 65 64 64 65 64 63 65 64 64 64
29 29 29 30 30 31 31 31 32 32 34 34 35 38 42 41 41 41 41 42 42 43 45 44 44 46 49 53 51 60 64 64 64 64 65 64 63 65 65 65 66 65 66
29 30 29 29 30 30 30 29 30 31 32 31 33 35 38 39 40 41 41 41 41 41 41 43 43 44 47 49 49 48 49 55 64 65 65 65 65 65 66 66 66 66 66
28 28 29 30 30 29 29 28 30 30 30 30 31 33 35 37 37 38 39 40 41 41 40 41 43 43 44 47 46 44 45 47 51 64 65 65 65 64 65 65 65 65 65
26 27 28 28 28 29 28 28 29 29 29 29 30 32 34 35 36 38 39 39 40 40 40 40 40 42 42 41 44 44 43 43 48 55 61 64 62 57 60 64 65 64 63
25 27 27 26 28 26 27 27 28 29 30 29 29 30 32 33 35 38 38 38 38 38 40 40 40 41 39 38 38 39 41 42 47 51 55 59 57 57 47 47 49 57 59
26 26 27 28 27 26 27 27 28 28 28 28 28 29 32 32 34 34 34 37 39 39 38 39 39 40 41 39 38 37 40 42 44 47 52 57 57 56 61 50 46 48 47
27 29 29 28 26 25 25 28 27 27 28 27 28 30 30 31 32 33 34 38 38 39 38 38 38 38 38 37 37 37 41 41 43 45 45 49 56 56 52 56 56 57 57
31 32 30 27 24 24 26 27 27 26 25 27 28 28 30 30 31 32 33 34 35 36 37 35 37 37 37 36 37 37 39 40 41 41 42 45 49 47 43 52 53 53 52
32 31 28 23 23 26 27 27 27 26 27 28 28 28 30 31 32 32 34 35 35 33 34 33 36 35 36 35 36 36 38 40 41 42 43 41 44 41 40 46 49 50 46
28 25 21 21 23 25 26 26 27 28 29 29 29 28 29 32 31 33 33 32 32 32 34 33 36 36 36 36 35 36 35 36 39 40 41 43 41 41 41 40 45 46 37
25 18 18 19 22 24 24 26 26 29 28 29 28 28 30 29 29 32 32 32 33 33 34 34 35 37 37 35 36 35 34 34 35 37 41 41 40 38 38 38 39 38 36
19 14 16 19 20 22 25 27 29 29 29 29 28 28 30 30 30 31 31 32 33 33 33 33 34 34 35 36 35 35 34 34 36 37 37 36 36 36 36 36 37 35 42
14 15 17 18 20 23 25 28 28 28 29 28 27 28 30 30 31 30 32 32 33 35 34 33 33 34 34 35 36 36 38 36 36 35 37 35 33 34 35 36 40 41 43
16 17 18 20 22 24 26 27 27 29 28 28 27 29 30 30 30 30 32 32 34 33 34 34 34 33 33 34 35 35 34 36 35 34 35 35 36 36 36 38 42 43 44
18 17 19 22 24 25 26 27 29 30 29 27 27 29 31 32 31 32 33 33 33 33 33 33 33 34 32 33 34 34 34 34 33 33 33 33 34 35 35 37 41 42 41